Weather History for Wheeling, WV

Change the Weather History Date:

Wednesday, September 3, 2014

  Actual Average Record
Temperature  
Mean Temperature 73 °F 68 °F  
Max Temperature 83 °F 78 °F 92 °F (2002)
Min Temperature 62 °F 58 °F 50 °F (1952)
Degree Days  
Heating Degree Days 0 1  
Month to date heating degree days 0 3  
Since 1 July heating degree days 23 14  
Cooling Degree Days 8    
Month to date cooling degree days 29  
Year to date cooling degree days 595  
Growing Degree Days 22 (Base 50)    
Moisture  
Dew Point 63 °F    
Average Humidity 75    
Maximum Humidity 100    
Minimum Humidity 49    
Precipitation  
Precipitation 0.00 in 0.09 in 1.15 in (1993)
Month to date precipitation 0.08 0.26  
Sea Level Pressure  
Sea Level Pressure 30.06 in    
Wind  
Wind Speed 2 mph (SSW)    
Max Wind Speed 8 mph    
Max Gust Speed 10 mph    
Visibility 6 miles    
Events Fog    
T = Trace of Precipitation, MM = Missing Value Source: NWS Daily Summary

Daily Weather History Graph

Daily Weather History Graph

Search for Another Location

Airport:

Trip Planner

Search our weather history database for the weather conditions in past years. The results will help you decide how hot, cold, wet, or windy it might be!

Date:

Astronomy

Sep. 03, 2014 Rise Set
Actual Time 6:52 AM EDT 7:51 PM EDT
Civil Twilight 6:24 AM EDT 8:18 PM EDT
Nautical Twilight 5:51 AM EDT 8:51 PM EDT
Astronomical Twilight 5:16 AM EDT 9:25 PM EDT
Moon 3:31 PM EDT (9/3) 12:44 AM EDT (9/3)
Length of Visible Light 13h 54m
Length of Day
12h 58m
Waxing Gibbous, 63% of the Moon is Illuminated
Sep 3
Waxing Gibbous
Sep 8
Full
Sep 15
Last Quarter
Sep 24
New
Oct 1
First Quarter

Hourly Weather History & Observations

Time (EDT) Temp. Heat Index Dew Point Humidity Pressure Visibility Wind Dir Wind Speed Gust Speed Precip Events Conditions
12:53 AM 68.0 °F - 64.0 °F 87% 29.99 in 10.0 mi West 3.5 mph - N/A   Clear
1:53 AM 64.9 °F - 64.0 °F 97% 29.99 in 10.0 mi SW 3.5 mph - N/A   Clear
2:53 AM 66.0 °F - 64.0 °F 93% 30.00 in 8.0 mi WSW 3.5 mph - N/A   Clear
3:20 AM 64.9 °F - 63.0 °F 93% 30.02 in 1.5 mi Calm Calm - N/A   Clear
3:35 AM 64.9 °F - 64.0 °F 97% 30.02 in 3.0 mi Calm Calm - N/A   Clear
3:37 AM 64.9 °F - 64.0 °F 97% 30.02 in 1.5 mi Calm Calm - N/A   Clear
3:41 AM 64.9 °F - 63.0 °F 93% 30.02 in 0.5 mi Calm Calm - N/A Fog Fog
3:46 AM 64.9 °F - 63.0 °F 93% 30.02 in 0.5 mi Calm Calm - N/A Fog Fog
3:53 AM 64.0 °F - 63.0 °F 96% 30.01 in 0.2 mi Calm Calm - N/A Fog Fog
4:01 AM 64.0 °F - 63.0 °F 96% 30.03 in 0.2 mi Calm Calm - N/A Fog Fog
4:53 AM 63.0 °F - 62.1 °F 97% 30.02 in 0.2 mi Calm Calm - N/A Fog Fog
5:53 AM 64.0 °F - 63.0 °F 96% 30.03 in 0.2 mi Calm Calm - N/A Fog Fog
6:53 AM 62.1 °F - 61.0 °F 96% 30.05 in 0.2 mi Calm Calm - N/A Fog Fog
7:53 AM 64.0 °F - 63.0 °F 96% 30.07 in 0.2 mi Calm Calm - N/A Fog Fog
8:53 AM 64.9 °F - 64.0 °F 97% 30.09 in 0.2 mi Calm Calm - N/A Fog Fog
9:53 AM 66.9 °F - 66.0 °F 97% 30.10 in 1.2 mi Calm Calm - N/A   Overcast
10:03 AM 66.9 °F - 66.0 °F 97% 30.11 in 3.0 mi Calm Calm - N/A   Overcast
10:28 AM 68.0 °F - 64.9 °F 90% 30.12 in 10.0 mi Calm Calm - N/A   Scattered Clouds
10:53 AM 73.0 °F - 66.0 °F 79% 30.11 in 10.0 mi Calm Calm - N/A   Partly Cloudy
11:25 AM 73.9 °F - 66.0 °F 76% 30.12 in 10.0 mi North 3.5 mph - N/A   Mostly Cloudy
11:53 AM 73.9 °F - 66.0 °F 76% 30.10 in 10.0 mi Calm Calm - N/A   Partly Cloudy
12:53 PM 77.0 °F - 64.0 °F 64% 30.09 in 10.0 mi South 5.8 mph - N/A   Clear
1:53 PM 79.0 °F - 63.0 °F 58% 30.09 in 10.0 mi SW 4.6 mph - N/A   Clear
2:53 PM 81.0 °F 81.9 °F 62.1 °F 52% 30.08 in 10.0 mi Calm Calm - N/A   Clear
3:53 PM 81.0 °F 81.3 °F 59.0 °F 47% 30.07 in 10.0 mi Calm Calm - N/A   Partly Cloudy
4:48 PM 82.4 °F 83.4 °F 62.6 °F 51% 30.08 in 10.0 mi WSW 4.6 mph - N/A   Mostly Cloudy
4:53 PM 82.0 °F 83.0 °F 62.1 °F 51% 30.06 in 10.0 mi WSW 4.6 mph - N/A   Mostly Cloudy
5:53 PM 80.1 °F 80.7 °F 59.0 °F 48% 30.07 in 10.0 mi SSE 3.5 mph - N/A   Clear
6:53 PM 80.1 °F 81.1 °F 61.0 °F 52% 30.07 in 10.0 mi Calm Calm - N/A   Clear
7:53 PM 75.0 °F - 63.0 °F 66% 30.07 in 10.0 mi Calm Calm - N/A   Clear
8:53 PM 73.0 °F - 62.1 °F 68% 30.09 in 10.0 mi SE 3.5 mph - N/A   Clear
9:53 PM 69.1 °F - 63.0 °F 81% 30.10 in 10.0 mi SE 3.5 mph - N/A   Clear
10:53 PM 71.1 °F - 62.1 °F 73% 30.11 in 10.0 mi SSE 4.6 mph - N/A   Clear
11:53 PM 69.1 °F - 62.1 °F 78% 30.12 in 10.0 mi SSE 3.5 mph - N/A   Clear